Flag for Norway Weather past 2 weeks in Spydeberg, Norway

Now
34 °F

Fog.


Feels Like: 34 °F
Forecast: 20 / 38 °F
Wind: 2 mph from Northwest

Location: Rygge

Current Time: Mar 27, 2015 at 8:31:46 AM

Latest Report: Mar 27, 2015 at 7:50 AM


Visibility: 0 mi

Pressure: 29.77 "Hg

Humidity: 100%

Dew point: 34 °F

Location of SpydebergLocation

Historic Weather in Spydeberg — Graph

°F

Spydeberg temperature yesterday

Maximum temperature yesterday: 34 °F (at 1:20 PM)
Minimum temperature yesterday: 28 °F (at 12:50 AM)
Average temperature yesterday: 32 °F

Past Weeks' High & Low Weather Summary

 TemperatureHumidityPressure
High52 °F (Mar 24, 1:20 PM)100% (Mar 12, 8:50 PM)30.86 "Hg (Mar 12, 8:50 PM)
Low25 °F (Mar 13, 6:20 AM)25% (Mar 13, 2:20 PM)29.50 "Hg (Mar 23, 3:20 PM)
Average37 °F77%30.30 "Hg
* Reported Mar 12 7:20 AM — Mar 27 7:20 AM, Spydeberg, Weather by CustomWeather, © 2015

Note: Actual official high and low records may vary slightly from our data, if they occured in-between our weather recording intervals... More about our weather records

Advertising

Spydeberg weather history for previous 24 hours

 ConditionsComfort  
Time TempWeatherWind HumidityBarometerVisibility
7:20 AM
Fri, Mar 27
34 °FFog.3 mph100%29.77 "Hg1 mi
6:50 AM34 °FFog.1 mph100%29.74 "Hg1 mi
6:20 AM34 °FFog.3 mph100%29.74 "Hg1 mi
5:50 AM34 °FFog.3 mph100%29.74 "Hg0 mi
5:20 AM34 °FFog.2 mph100%29.74 "Hg0 mi
4:50 AM34 °FFog.2 mph100%29.74 "Hg0 mi
3:50 AM34 °FFog.3 mph100%29.74 "Hg0 mi
3:20 AM32 °FFog.No wind100%29.74 "Hg0 mi
2:50 AM34 °FFog.No wind100%29.71 "Hg0 mi
2:20 AM34 °FFog.2 mph100%29.71 "Hg0 mi
1:50 AM34 °FFog.2 mph100%29.71 "Hg0 mi
1:20 AM34 °FFog.2 mph100%29.74 "Hg0 mi
12:50 AM34 °FFog.3 mph100%29.71 "Hg0 mi
12:20 AM34 °FFog.2 mph100%29.71 "Hg0 mi
11:50 PM
Thu, Mar 26
34 °FFog.1 mph100%29.71 "Hg0 mi
11:20 PM34 °FFog.2 mph100%29.71 "Hg0 mi
10:50 PM34 °FFog.2 mph100%29.71 "Hg1 mi
9:50 PM34 °FFog.2 mph100%29.71 "Hg1 mi
9:20 PM34 °FFog.3 mph100%29.71 "Hg1 mi
8:50 PM34 °FFog.2 mph100%29.71 "Hg1 mi
8:20 PM34 °FDrizzle. Fog.3 mph100%29.68 "Hg1 mi
7:50 PM34 °FLight rain. Fog.3 mph100%29.68 "Hg1 mi
7:20 PM34 °FDrizzle. Fog.3 mph100%29.68 "Hg1 mi
6:50 PM34 °FDrizzle. Fog.3 mph100%29.68 "Hg1 mi
6:20 PM34 °FDrizzle. Fog.2 mph100%29.68 "Hg1 mi
5:50 PM34 °FDrizzle. Fog.5 mph100%29.68 "Hg1 mi
5:20 PM34 °FFog.5 mph100%29.68 "Hg1 mi
4:50 PM34 °FFog.3 mph100%29.68 "Hg2 mi
4:20 PM34 °FFog.3 mph100%29.68 "Hg2 mi
3:50 PM34 °FBroken clouds.3 mph100%29.68 "Hg5 mi
3:20 PM34 °FDrizzle. Broken clouds.5 mph100%29.68 "Hg4 mi
2:50 PM34 °FDrizzle. Broken clouds.5 mph100%29.68 "HgN/A
2:20 PM34 °FLight rain. Broken clouds.7 mph93%29.68 "Hg3 mi
1:50 PM32 °FLight snow. Partly sunny.8 mph100%29.68 "Hg2 mi
1:20 PM34 °FLight snow. Dense fog.8 mph93%29.68 "Hg1 mi
12:50 PM32 °FLight snow. Partly sunny.10 mph100%29.68 "Hg1 mi
12:20 PM32 °FSnow. Partly sunny.13 mph100%29.68 "Hg1 mi
11:50 AM32 °FSnow. Dense fog.13 mph100%29.68 "Hg1 mi
11:20 AM32 °FSnow. Dense fog.14 mph100%29.71 "Hg1 mi
10:50 AM32 °FSnow. Dense fog.16 mph100%29.71 "Hg1 mi
10:20 AM32 °FSnow. Dense fog.18 mph100%29.71 "Hg1 mi
9:50 AM32 °FSnow. Dense fog.20 mph93%29.71 "Hg0 mi
9:20 AM30 °FHeavy snow. Ice fog.21 mph100%29.71 "Hg0 mi
8:50 AM30 °FSnow. Ice fog.15 mph100%29.74 "Hg0 mi
8:20 AM30 °FSnow. Ice fog.12 mph93%29.77 "Hg1 mi
Weather by CustomWeather, © 2015

See weather overviewHow to use our weather pages